Regional Weather Roundup
Issued by NWS Newport/Morehead, NC

Current Version | Previous Version | Text Only | Print | Product List | Glossary On
Versions: 1 2 3 4 5 6 7 8 9 10 11 12 13 14 15 16 17 18 19 20 21 22 23 24 25 26 27 28 29 30 31 32 33 34 35 36 37 38 39
000 ASUS42 KMHX 210922 RWRMHX WEATHER ROUNDUP FOR EASTERN NORTH CAROLINA NATIONAL WEATHER SERVICE NEWPORT/MOREHEAD CITY NC 400 AM EST SUN JAN 21 2018 NOTE: "FAIR" INDICATES FEW OR NO CLOUDS BELOW 12,000 FEET WITH NO SIGNIFICANT WEATHER AND/OR OBSTRUCTIONS TO VISIBILITY NCZ015>017-031-032-045>047-102-103-211000- NORTH COAST CITY SKY/WX TMP DP RH WIND PRES REMARKS EDENTON FAIR 45 30 57 CALM 30.17F ELIZABETH CITY FAIR 39 34 82 SW7 30.17S KITTY HAWK FAIR 42 28 56 CALM 30.15S MANTEO FAIR 43 29 57 W7 30.17S $$ NCZ045>047-081-094-103-104-211000- CENTRAL COAST CITY SKY/WX TMP DP RH WIND PRES REMARKS FRISCO FAIR 45 34 65 W7 30.18F $$ NCZ095-097-098-100-101-211000- SOUTHERN COAST CITY SKY/WX TMP DP RH WIND PRES REMARKS BEAUFORT FAIR 38 34 85 W3 30.20S CEDAR ISLAND NOT AVBL JACKSONVILLE FAIR 40 31 70 CALM 30.21S PINEY ISLAND NOT AVBL WILMINGTON FAIR 39 33 79 CALM 30.22R $$ NCZ011>013-027>030-043-044-078>080-089-090>093-098-211000- COASTAL PLAIN CITY SKY/WX TMP DP RH WIND PRES REMARKS AHOSKIE FAIR 33 32 96 CALM 30.18S CLINTON FAIR 34 28 77 CALM 30.22S ELIZABETHTOWN NOT AVBL GOLDSBORO FAIR 38 26 61 S5 30.18R GREENVILLE FAIR 39 28 65 CALM 30.20R HAVELOCK NOT AVBL KENANSVILLE FAIR 32 28 86 CALM 30.21S KINSTON FAIR 40 27 60 SW6 30.20S NEW BERN FAIR 42 28 57 VRB3 30.20S RICHLANDS FAIR 34 30 85 CALM 30.21F ROCKY MOUNT NOT AVBL WASHINGTON FAIR 39 26 59 CALM 30.19R WHITEVILLE FAIR 39 32 76 CALM 30.21S $$ AMZ130-135-150-152-154-156-158-170-250-252-270-ANZ085-086-088-633-658-670-211000- MARINE OBSERVATIONS STATION/POSITION TIME TEMP WIND PRES WAVE SWELL AIR SEA DIR/SP/G HT/PER HT/PER (UTC) (F) (DEG/KT/KT) (MB) (FT/S) (FT/S) CHESAPEAKE LIGHT NOT AVBL 64 E VA BEACH NOT AVBL DUCK NOT AVBL 2 E DUCK NOT AVBL OREGON INLET NOT AVBL 13E OREGON INLT NOT AVBL HATTERAS CG NOT AVBL DIAMOND BUOY NOT AVBL CAPE LOOKOUT NOT AVBL BEAUFORT LAB NOT AVBL 30 SE NEW RVR IN NOT AVBL 30 SE NEW RVR IN NOT AVBL 27 SE WRIGHTSVLE NOT AVBL 5 SE WRIGHTSVLE NOT AVBL 225 S CAPE HAT NOT AVBL 41 SE CHARLESTON NOT AVBL $$

USA.gov is the U.S. government's official web portal to all federal, state and local government web resources and services.